Regional Weather Roundup
Issued by NWS Kansas City/Pleasant Hill, MO

Home | Current Version | Previous Version | Graphics & Text | Print | Product List | Glossary Off
Versions: 1 2 3 4 5 6 7 8 9 10 11 12 13 14 15 16 17 18 19 20 21 22 23 24 25 26 27 28 29 30 31 32 33 34 35 36 37 38 39 40 41 42 43 44 45 46 47 48 49 50

000
ASUS43 KEAX 210510
RWREAX

WEATHER ROUNDUP FOR EASTERN KANSAS AND NORTHWEST MISSOURI
NATIONAL WEATHER SERVICE KANSAS CITY/PLEASANT HILL MO
1100 PM CST FRI JAN 20 2017

KSZ040-057-103>105-MOZ028-029-037-043-210600-
...KANSAS CITY METROPOLITAN AREA...

CITY           SKY/WX    TMP DP  RH WIND       PRES   REMARKS
K.C. INTL      MOCLDY    47  42  83 SW3       29.44F
K.C. DOWNTOWN  PTCLDY    47  44  90 CALM      29.44F
LEES SUMMIT    CLOUDY    45  44  97 SE3       29.46F
OLATHE - IXD   CLOUDY    44  43  96 SE9       29.44F
OLATHE - OJC   CLOUDY    43  43 100 S5        29.44F
LAWRENCE       PTCLDY    38  38 100 SE6       29.45R FOG     WCI  33

$$

MOZ001>008-011>017-020>025-030>033-038>040-044>046-053-054-210600-
...NORTHERN AND CENTRAL MISSOURI...

CITY           SKY/WX    TMP DP  RH WIND       PRES   REMARKS
ST. JOSEPH     PTCLDY    44  44 100 SE5       29.43F FOG
MOSBY          MOCLDY    46  45  93 SE6       29.45F
WARRENSBURG    PTCLDY    41  39  93 S7        29.48S
WHITEMAN AFB   PTCLDY    42  42 100 S8        29.48R
CLINTON        PTCLDY    46  39  76 CALM      29.48F
SEDALIA        CLEAR     44  40  85 S10       29.49S
WARSAW         NOT AVBL
CHILLICOTHE      N/A     46  46 100 S5        29.49R
KIRKSVILLE     CLOUDY    47  47 100 SE14      29.49S FOG

$$

MOZ041-047>049-056>058-063>065-088>090-097-210600-
...EASTERN AND SOUTHERN MISSOURI...

CITY           SKY/WX    TMP DP  RH WIND       PRES   REMARKS
ST. LOUIS INTL PTCLDY    53  49  86 SE6       29.59R
SPIRIT OF STL  CLEAR     55  51  86 SE5       29.57R
COLUMBIA       CLEAR     47  45  93 S12       29.51S
JEFFERSON CITY CLEAR     50  46  86 E6        29.53S
ROLLA          CLEAR     52  47  83 S12       29.55S
OSAGE BEACH    CLEAR     51  43  74 S8        29.54S
SPRINGFIELD    CLEAR     52  38  58 S12       29.54F
BRANSON        CLEAR     55  37  50 S7        29.60S
JOPLIN         CLEAR     57  38  48 S20G25    29.51S
WEST PLAINS    CLEAR     54  45  71 S8        29.63R

$$

IAZ060-094-KSZ022-034>040-054-083-096-NEZ052-066-093-210600-
...KANSAS...SOUTHEAST NEBRASKA AND IOWA...

CITY           SKY/WX    TMP DP  RH WIND       PRES   REMARKS
TOPEKA         FOG       40  38  93 SE3       29.43R VSB 1/4
MANHATTAN      CLEAR     43  41  93 SW6       29.43R
EMPORIA        FOG       36  36 100 SE6       29.43S VSB 1   WCI  31
CHANUTE        PTCLDY    39  37  92 SE8       29.46F WCI  33
WICHITA        MOCLDY    36  35  96 W8        29.47R FOG     WCI  30
OMAHA          CLOUDY    41  38  89 SE6       29.41F FOG
LINCOLN        LGT RAIN  42  41  96 CALM      29.41F VSB 1/2
FALLS CITY     FOG       44  44 100 S8        29.42R VSB 1
LAMONI         FOG       45  45 100 S6        29.44S VSB 1/4
DES MOINES     LGT RAIN  42  41  96 E6        29.45F VSB 1/4

$$




USA.gov is the U.S. government's official web portal to all federal, state and local government web resources and services.